sat.trackr.live / text

‹ back to catalog

STARLINK-31212

NORAD 58875 · 2024-019Y

PAYLOAD ACTIVE UNKNOWN

§ Identity

Operator
Country
US
Launch date
2024-01-29
Launch site
AFETR
Launch vehicle
Mass (kg)
RCS (m²)

Purposes: comms

External: N2YO · Heavens-Above · Gunter

§ Orbital elements

Epoch: 2026-05-25T02:34:53.984064Z

Period
94.27 min
Inclination
43.0010°
Eccentricity
0.0001260
Mean motion
15.27574920 rev/d
Perigee alt
482.2 km
Apogee alt
483.9 km
Semi-major
6,861.2 km
B*
5.4168e-6
RAAN
177.0016°
Arg perigee
275.4921°
Mean anomaly
84.5787°
Rev number
13,075

§ Raw data

STARLINK-312121 58875U 24019Y   26145.10756926 -.00000113  00000+0  54168-5 0  99972 58875  43.0010 177.0016 0001260 275.4921  84.5787 15.27574920130751

JSON: /api/v1/satellites/58875 · /tle

For live sub-satellite position, see the globe view (requires WebGL).

§ Visibility from observer

Set your observer location to see the next 7 days of passes ≥ 10°. The values pass through the URL so the page stays shareable.

No JS? Fill the form by hand. The geolocation button needs JavaScript.